Weather History for Houston, TX

Change the Weather History Date:

Tuesday, March 11, 2014

  Actual Average Record
Temperature  
Mean Temperature 66 °F 62 °F  
Max Temperature 75 °F 72 °F 87 °F (1911)
Min Temperature 56 °F 52 °F 27 °F (1948)
Degree Days  
Heating Degree Days 0 5  
Month to date heating degree days 136 68  
Since 1 July heating degree days 1616 1256  
Cooling Degree Days 1 2  
Month to date cooling degree days 10 20  
Year to date cooling degree days 44 58  
Growing Degree Days 16 (Base 50)    
Moisture  
Dew Point 56 °F    
Average Humidity 73    
Maximum Humidity 93    
Minimum Humidity 53    
Precipitation  
Precipitation 0.00 in 0.11 in 2.81 in (2012)
Month to date precipitation 1.65 1.26  
Year to date precipitation 5.00 7.84  
Sea Level Pressure  
Sea Level Pressure 29.78 in    
Wind  
Wind Speed 5 mph (SW)    
Max Wind Speed 14 mph    
Max Gust Speed 20 mph    
Visibility 9 miles    
Events      
T = Trace of Precipitation, MM = Missing Value Source: NWS Daily Summary

Daily Weather History Graph

Daily Weather History Graph

Search for Another Location

Airport:

Trip Planner

Search our weather history database for the weather conditions in past years. The results will help you decide how hot, cold, wet, or windy it might be!

Date:

Astronomy

Mar. 11, 2014 Rise Set
Actual Time 7:35 AM CDT 7:27 PM CDT
Civil Twilight 7:11 AM CDT 7:50 PM CDT
Nautical Twilight 6:44 AM CDT 8:18 PM CDT
Astronomical Twilight 6:16 AM CDT 8:46 PM CDT
Moon 3:19 PM CDT (3/11) 4:13 AM CDT (3/11)
Length of Visible Light 12h 39m
Length of Day
11h 51m
Waxing Gibbous, 78% of the Moon is Illuminated
Mar 11
Waxing Gibbous
Mar 16
Full
Mar 23
Last Quarter
Mar 30
New
Apr 7
First Quarter

Hourly Weather History & Observations

Time (CDT) Temp. Dew Point Humidity Pressure Visibility Wind Dir Wind Speed Gust Speed Precip Events Conditions
12:53 AM 60.1 °F 54.0 °F 80% 29.93 in 10.0 mi Calm Calm - N/A   Mostly Cloudy
1:53 AM 59.0 °F 54.0 °F 83% 29.93 in 10.0 mi WSW 4.6 mph - N/A   Overcast
2:53 AM 59.0 °F 55.0 °F 87% 29.92 in 9.0 mi SW 4.6 mph - N/A   Overcast
3:53 AM 59.0 °F 55.0 °F 87% 29.89 in 8.0 mi Calm Calm - N/A   Overcast
4:53 AM 59.0 °F 55.0 °F 87% 29.84 in 8.0 mi West 3.5 mph - N/A   Overcast
5:53 AM 57.9 °F 55.0 °F 90% 29.83 in 8.0 mi Calm Calm - N/A   Overcast
6:53 AM 59.0 °F 55.0 °F 87% 29.82 in 8.0 mi Calm Calm - N/A   Mostly Cloudy
7:53 AM 59.0 °F 55.0 °F 87% 29.82 in 7.0 mi WSW 5.8 mph - N/A   Overcast
8:53 AM 59.0 °F 57.0 °F 93% 29.84 in 5.0 mi SW 4.6 mph - N/A   Overcast
9:21 AM 62.6 °F 57.2 °F 82% 29.81 in 6.0 mi Calm Calm - N/A   Scattered Clouds
9:53 AM 63.0 °F 55.9 °F 78% 29.83 in 8.0 mi WSW 5.8 mph - N/A   Overcast
10:41 AM 64.4 °F 57.2 °F 77% 29.81 in 10.0 mi Variable 3.5 mph - N/A   Mostly Cloudy
10:53 AM 66.0 °F 57.9 °F 75% 29.83 in 10.0 mi Calm Calm - N/A   Mostly Cloudy
11:53 AM 68.0 °F 57.0 °F 68% 29.82 in 10.0 mi SW 11.5 mph - N/A   Mostly Cloudy
12:39 PM 69.8 °F 57.2 °F 64% 29.79 in 10.0 mi WSW 11.5 mph - N/A   Scattered Clouds
12:53 PM 70.0 °F 57.0 °F 63% 29.80 in 10.0 mi SW 13.8 mph 20.7 mph N/A   Scattered Clouds
1:53 PM 71.1 °F 57.0 °F 61% 29.76 in 10.0 mi SW 12.7 mph - N/A   Scattered Clouds
2:53 PM 73.0 °F 57.0 °F 57% 29.71 in 10.0 mi SSW 13.8 mph - N/A   Scattered Clouds
3:53 PM 73.9 °F 55.9 °F 53% 29.70 in 10.0 mi WSW 15.0 mph - N/A   Scattered Clouds
4:53 PM 73.9 °F 55.0 °F 52% 29.68 in 10.0 mi SW 12.7 mph - N/A   Partly Cloudy
5:53 PM 75.0 °F 55.9 °F 51% 29.67 in 10.0 mi SW 11.5 mph - N/A   Partly Cloudy
6:53 PM 70.0 °F 57.9 °F 65% 29.68 in 10.0 mi South 15.0 mph - N/A   Partly Cloudy
7:53 PM 64.9 °F 57.0 °F 75% 29.69 in 10.0 mi South 11.5 mph - N/A   Clear
8:53 PM 62.1 °F 55.9 °F 80% 29.71 in 10.0 mi SSW 9.2 mph - N/A   Clear
9:53 PM 61.0 °F 55.9 °F 83% 29.73 in 10.0 mi SSW 6.9 mph - N/A   Clear
10:53 PM 59.0 °F 55.9 °F 90% 29.74 in 10.0 mi SSW 5.8 mph - N/A   Scattered Clouds
11:01 PM 59.0 °F 55.4 °F 88% 29.72 in 10.0 mi SSW 8.1 mph - N/A   Mostly Cloudy
11:41 PM 59.0 °F 57.2 °F 94% 29.72 in 8.0 mi SSW 9.2 mph - N/A   Overcast
11:53 PM 59.0 °F 57.0 °F 93% 29.74 in 8.0 mi SSW 8.1 mph - N/A   Overcast